Weather History for Klawock, AK

Change the Weather History Date:

Friday, February 8, 2013

  Actual Average Record
Temperature  
Mean Temperature 40 °F -  
Max Temperature 42 °F 39 °F 52 °F (2012)
Min Temperature 37 °F 29 °F 14 °F (2014)
Degree Days  
Heating Degree Days 26    
Moisture  
Dew Point 39 °F    
Average Humidity 97    
Maximum Humidity 100    
Minimum Humidity 87    
Precipitation  
Precipitation 0.80 in - - ()
Sea Level Pressure  
Sea Level Pressure 30.00 in    
Wind  
Wind Speed 4 mph (South)    
Max Wind Speed 9 mph    
Max Gust Speed 23 mph    
Visibility 6 miles    
Events Rain    
Averages and records for this station are not official NWS values.
T = Trace of Precipitation, MM = Missing Value Source: NWS Daily Summary

Daily Weather History Graph

Daily Weather History Graph

Search for Another Location

Airport:

Trip Planner

Search our weather history database for the weather conditions in past years. The results will help you decide how hot, cold, wet, or windy it might be!

Date:

Astronomy

Feb. 08, 2013 Rise Set
Actual Time 7:30 AM AKST 4:43 PM AKST
Civil Twilight 6:51 AM AKST 5:22 PM AKST
Nautical Twilight 6:07 AM AKST 6:06 PM AKST
Astronomical Twilight 5:25 AM AKST 6:48 PM AKST
Moon 6:12 AM AKST (2/8) 3:20 PM AKST (2/8)
Length of Visible Light 10h 31m
Length of Day
9h 12m
Waning Crescent, 3% of the Moon is Illuminated
Feb 8
Waning Crescent
Feb 9
New
Feb 17
First Quarter
Feb 25
Full
Mar 4
Last Quarter

Hourly Weather History & Observations

Time (AKST) Temp. Windchill Dew Point Humidity Pressure Visibility Wind Dir Wind Speed Gust Speed Precip Events Conditions
12:39 AM 39.2 °F 34.2 °F 35.6 °F 87% 29.97 in 10.0 mi South 6.9 mph - 0.01 in Rain Light Rain
12:53 AM 39.0 °F 34.0 °F 36.0 °F 89% 29.97 in 10.0 mi Variable 6.9 mph 16.1 mph 0.01 in Rain Light Rain
4:53 AM 39.0 °F 33.4 °F 36.0 °F 89% 29.90 in 10.0 mi SSE 8.1 mph - 0.04 in Rain Light Rain
5:53 AM 39.0 °F 32.8 °F 36.0 °F 89% 29.89 in 5.0 mi SSE 9.2 mph 23.0 mph 0.11 in Rain Rain
6:53 AM 39.0 °F 35.7 °F 37.0 °F 93% 29.89 in 6.0 mi Variable 4.6 mph - 0.13 in Rain Rain
7:45 AM 39.2 °F 35.9 °F 37.4 °F 93% 29.88 in 8.0 mi Variable 4.6 mph - 0.10 in Rain Light Rain
7:53 AM 39.9 °F 35.8 °F 37.9 °F 93% 29.89 in 7.0 mi Variable 5.8 mph - 0.11 in Rain Rain
8:53 AM 39.0 °F 36.8 °F 37.9 °F 96% 29.91 in 4.0 mi North 3.5 mph - 0.11 in Rain Rain
9:45 AM 39.2 °F 35.9 °F 37.4 °F 93% 29.91 in 5.0 mi NNE 4.6 mph - 0.10 in Rain Rain
9:53 AM 39.0 °F 36.8 °F 37.9 °F 96% 29.91 in 8.0 mi ENE 3.5 mph - 0.11 in Rain Light Rain
10:05 AM 37.4 °F 34.9 °F 37.4 °F 100% 29.91 in 8.0 mi NNE 3.5 mph - 0.00 in Rain Light Rain
10:15 AM 37.4 °F 32.8 °F 37.4 °F 100% 29.91 in 4.0 mi NNE 5.8 mph - 0.00 in Rain Light Rain
10:26 AM 39.2 °F 37.0 °F 37.4 °F 93% 29.92 in 2.5 mi North 3.5 mph - 0.01 in Rain Light Rain
10:35 AM 39.2 °F 35.0 °F 37.4 °F 93% 29.92 in 4.0 mi NE 5.8 mph - 0.02 in Rain Light Rain
10:44 AM 39.2 °F 37.0 °F 37.4 °F 93% 29.91 in 2.0 mi NE 3.5 mph - 0.03 in Rain Light Rain
10:53 AM 39.0 °F 36.8 °F 37.9 °F 96% 29.92 in 6.0 mi NNE 3.5 mph - 0.03 in Rain Light Rain
11:34 AM 39.2 °F - 37.4 °F 93% 29.93 in 2.5 mi Calm Calm - 0.01 in Rain Light Rain
11:40 AM 39.2 °F 37.0 °F 37.4 °F 93% 29.93 in 1.2 mi North 3.5 mph - 0.02 in Rain Light Rain
11:53 AM 39.0 °F 35.7 °F 37.9 °F 96% 29.94 in 1.0 mi North 4.6 mph - 0.04 in Rain Light Rain
12:30 PM 39.2 °F - 39.2 °F 100% 29.94 in 1.8 mi Calm Calm - 0.04 in Rain Light Rain
12:53 PM 39.9 °F - 39.0 °F 97% 29.94 in 1.8 mi Calm Calm - 0.05 in Rain Light Rain
1:37 PM 39.2 °F - 39.2 °F 100% 29.96 in 1.5 mi Calm Calm - 0.02 in Rain Light Rain
1:44 PM 41.0 °F - 39.2 °F 93% 29.96 in 1.0 mi Calm Calm - 0.02 in Rain Light Rain
1:53 PM 41.0 °F - 39.9 °F 96% 29.96 in 1.2 mi Calm Calm - 0.03 in Rain Light Rain
2:12 PM 41.0 °F - 41.0 °F 100% 29.96 in 1.5 mi Calm Calm - 0.00 in   Overcast
2:19 PM 41.0 °F - 39.2 °F 93% 29.97 in 1.0 mi Calm Calm - 0.00 in Rain Light Rain
2:30 PM 41.0 °F - 41.0 °F 100% 29.97 in 1.8 mi Calm Calm - 0.01 in   Overcast
2:46 PM 42.8 °F 40.1 °F 41.0 °F 93% 29.98 in 1.8 mi SW 4.6 mph - 0.01 in   Overcast
2:53 PM 42.1 °F 39.2 °F 42.1 °F 100% 29.99 in 1.2 mi SSW 4.6 mph - 0.01 in   Overcast
3:06 PM 42.8 °F 40.1 °F 42.8 °F 100% 29.99 in 2.5 mi SSW 4.6 mph - N/A   Overcast
3:11 PM 42.8 °F 40.1 °F 42.8 °F 100% 29.99 in 10.0 mi SSW 4.6 mph - N/A   Overcast
3:28 PM 42.8 °F 40.1 °F 42.8 °F 100% 29.99 in 3.0 mi South 4.6 mph - 0.00 in Rain Light Rain
3:35 PM 42.8 °F 41.1 °F 42.8 °F 100% 29.99 in 7.0 mi SSW 3.5 mph - 0.01 in Rain Light Rain
3:53 PM 42.1 °F 39.2 °F 42.1 °F 100% 30.00 in 10.0 mi SSW 4.6 mph - 0.01 in   Overcast
4:53 PM 42.1 °F 38.4 °F 42.1 °F 100% 30.03 in 8.0 mi SSW 5.8 mph - 0.00 in   Overcast
5:11 PM 42.8 °F 41.1 °F 42.8 °F 100% 30.04 in 3.0 mi Variable 3.5 mph - 0.00 in Rain Light Rain
5:33 PM 42.8 °F 40.1 °F 41.0 °F 93% 30.04 in 2.5 mi WSW 4.6 mph - 0.01 in   Overcast
5:43 PM 42.8 °F - 41.0 °F 93% 30.04 in 4.0 mi Calm Calm - 0.01 in   Overcast
5:53 PM 41.0 °F - 41.0 °F 100% 30.04 in 9.0 mi Calm Calm - 0.01 in   Overcast
6:07 PM 41.0 °F - 41.0 °F 100% 30.03 in 10.0 mi Calm Calm - N/A   Overcast
6:36 PM 41.0 °F 39.0 °F 41.0 °F 100% 30.04 in 10.0 mi SSW 3.5 mph - N/A   Overcast
6:53 PM 41.0 °F 38.0 °F 39.9 °F 96% 30.06 in 10.0 mi SSW 4.6 mph - N/A   Overcast
7:22 PM 41.0 °F - 39.2 °F 93% 30.07 in 10.0 mi Calm Calm - N/A   Overcast
7:53 PM 39.9 °F - 39.9 °F 100% 30.09 in 10.0 mi Calm Calm - N/A   Overcast
8:19 PM 39.2 °F 37.0 °F 39.2 °F 100% 30.09 in 9.0 mi Variable 3.5 mph - N/A   Overcast
8:26 PM 39.2 °F 37.0 °F 39.2 °F 100% 30.10 in 7.0 mi SW 3.5 mph - N/A   Overcast
8:38 PM 39.2 °F - 39.2 °F 100% 30.10 in 2.5 mi Calm Calm - N/A   Overcast
8:53 PM 39.9 °F - 39.9 °F 100% 30.11 in 2.5 mi Calm Calm - N/A   Overcast
9:00 PM 39.2 °F - 39.2 °F 100% 30.11 in 4.0 mi Calm Calm - N/A   Overcast
9:18 PM 39.2 °F - 39.2 °F 100% 30.10 in 10.0 mi Calm Calm - N/A   Overcast
9:53 PM 39.0 °F - 39.0 °F 100% 30.11 in 10.0 mi Calm Calm - N/A   Overcast
10:53 PM 39.0 °F 36.8 °F 39.0 °F 100% 30.14 in 10.0 mi South 3.5 mph - N/A   Overcast
11:43 PM 39.2 °F - 39.2 °F 100% 30.15 in 10.0 mi Calm Calm - N/A   Overcast
11:47 PM 39.2 °F - 39.2 °F 100% 30.15 in 10.0 mi Calm Calm - N/A   Overcast
11:53 PM 39.0 °F 36.8 °F 37.9 °F 96% 30.16 in 10.0 mi South 3.5 mph - N/A   Overcast